{"data":{"norad_id":49449,"intl_designator":"2021-104AT","name":"STARLINK-3137","alt_names":[],"object_type":"PAYLOAD","status":"ACTIVE","operator":null,"country":"US","launch_date":"2021-11-13","launch_site_code":"AFETR","launch_vehicle":null,"mission":null,"orbit_class":"UNKNOWN","rcs_meters":null,"size_class":null,"mass_kg":null,"dimensions":null,"purposes":["comms"],"wikipedia_slug":null,"has_3d_model":false,"image_url":null,"decayed_at":null,"tle_current":{"epoch":"2026-05-24T21:31:33.220992Z","epoch_age_seconds":77170,"freshness":"FRESH","line1":"1 49449U 21104AT  26144.89691228  .00044937  00000+0  86853-3 0  9999","line2":"2 49449  53.2157 204.4085 0002786 356.0906   4.0080 15.47353181250748","mean_motion":15.47353181,"eccentricity":0.0002786,"inclination_deg":53.2157,"raan_deg":204.4085,"arg_perigee_deg":356.0906,"mean_anomaly_deg":4.008,"bstar":0.00086853,"rev_number":25074,"period_min":93.062141060089,"perigee_km":422.57727266343,"apogee_km":426.3676866655,"semimajor_km":6802.6094796645,"source":"CELESTRAK","updated_at":"2026-05-25T13:38:16.803340Z"}}}